Location: St. Louis
(38.6270°N, 90.1994°W)
Time: 00:24:56
(UTC-06:00)

Vanguard 1 - Pass Details

Date: 03 December 2021
Orbit: 652 x 3830 km, 34.2° (Epoch: 21 January)

Event Time Altitude Azimuth Distance (km) Brightness Sun altitude
Rises 08:08:52 0° 280° (W) 6,816 13.8 10.0°
Reaches altitude 10° 08:17:44 10° 257° (WSW) 4,937 13.3 11.4°
Maximum altitude 08:22:13 12° 237° (WSW) 4,247 13.2 12.0°
Drops below altitude 10° 08:25:59 10° 216° (SW) 3,987 13.3 12.6°
Sets 08:31:17 0° 188° (S) 4,318 13.9 13.3°
